Theta_e
335 336 336 336 335 336 336 336 337 337 340 338 340 339 341 343 341 340 340 341 341 342 343 339 338 336 335 327 328 333 340 345 343 342 342 339 338 337 336 335 333 331 333 333
336 336 336 334 335 335 335 337 336 337 340 339 339 342 341 340 340 341 341 341 342 343 342 340 340 338 337 330 328 331 335 338 342 341 338 335 337 337 336 334 332 332 333 333
336 336 334 334 335 335 335 336 337 335 337 340 337 343 342 341 341 340 340 342 343 341 341 341 342 342 338 331 329 329 330 335 333 338 337 337 335 334 333 334 332 332 332 333
336 335 334 334 334 335 335 336 335 335 337 338 341 346 344 342 342 340 340 340 339 340 341 341 342 344 344 342 338 335 332 336 333 338 337 337 334 335 336 333 332 333 334 332
334 335 334 334 335 334 334 334 334 336 337 338 342 342 347 339 342 340 340 340 340 339 338 338 339 341 344 344 341 341 342 339 339 339 335 337 334 335 335 334 334 334 333 334
333 333 333 333 334 334 334 336 341 339 340 342 341 341 345 343 338 339 338 335 335 335 337 337 338 340 344 345 344 341 342 342 338 340 335 333 337 337 334 335 334 334 334 334
333 333 334 332 334 337 337 338 344 347 349 343 341 340 345 341 337 335 335 335 336 336 336 337 338 338 338 339 347 345 341 342 341 341 340 339 337 337 332 334 335 335 334 335
335 335 333 333 333 334 335 338 338 342 338 340 340 343 343 340 337 335 335 337 337 337 337 337 338 339 338 340 341 342 342 342 341 341 340 340 339 339 335 336 336 335 335 334
335 333 333 332 333 333 335 336 338 338 338 340 340 339 340 338 338 337 337 338 337 338 337 336 336 337 336 336 340 339 341 342 342 342 342 341 339 339 337 339 337 337 336 336
334 336 334 334 333 333 335 335 335 341 347 344 340 342 345 340 340 338 339 338 338 338 336 334 333 334 334 332 334 338 339 341 343 344 342 342 339 339 338 338 337 337 336 336
333 335 334 333 333 335 336 337 340 337 337 341 342 342 339 341 340 340 339 338 339 337 335 331 332 334 334 333 332 338 339 340 342 342 341 341 341 340 338 335 335 331 331 334
331 334 335 334 336 334 332 335 338 339 342 342 340 342 340 341 341 340 339 340 339 337 334 331 332 334 335 335 334 335 339 340 341 341 340 339 340 339 338 337 336 336 328 336
334 335 337 335 335 339 337 337 337 337 339 338 337 341 340 342 342 340 340 339 338 335 334 333 333 334 334 335 335 337 339 340 340 339 338 339 339 338 337 336 334 336 334 336
336 336 337 334 334 336 337 334 335 335 337 337 336 335 342 343 344 343 341 339 337 333 333 333 334 335 334 334 334 338 339 339 338 338 336 336 336 336 337 336 335 336 336 336
337 340 335 334 333 333 333 333 333 335 336 337 337 337 336 342 344 343 342 339 333 334 333 333 334 336 334 333 334 338 339 339 338 336 335 335 334 335 335 337 337 336 335 332
341 341 337 334 333 335 335 334 334 334 335 336 337 337 339 340 340 343 341 337 334 333 333 333 334 335 334 332 334 337 338 338 337 336 334 333 331 332 332 333 335 333 335 331
344 340 341 337 335 339 338 336 337 336 336 336 337 336 343 344 342 341 339 337 335 334 333 332 335 335 334 333 335 335 336 336 335 334 331 328 329 326 327 328 329 330 331 330
341 340 337 338 338 344 338 337 336 334 335 336 335 336 339 340 341 340 337 335 335 334 333 332 333 332 332 333 333 333 334 334 333 332 328 326 326 325 323 323 324 324 325 326
342 341 339 340 339 338 337 338 337 336 336 336 338 337 339 340 340 340 337 336 334 333 333 334 334 333 334 334 333 333 333 333 332 330 326 324 323 323 323 323 324 324 325 325
343 344 342 340 343 340 334 335 335 336 340 336 336 336 338 340 342 340 338 336 335 335 334 335 334 334 335 335 334 333 333 332 332 329 326 325 324 323 321 322 322 324 325 324
341 341 339 337 337 336 336 337 338 339 348 341 337 337 339 342 340 341 338 337 335 335 336 336 336 336 336 334 334 335 332 331 331 329 327 326 325 323 321 323 324 324 324 324
338 340 337 336 336 335 337 336 338 348 346 344 341 341 341 340 339 340 338 338 337 336 335 336 336 337 337 335 334 334 332 332 331 329 328 326 323 322 322 323 325 324 325 325
339 337 338 338 339 337 335 338 339 340 342 342 344 343 342 340 339 338 339 338 338 338 336 335 335 336 337 334 333 332 331 332 331 330 330 326 323 323 323 325 325 324 322 322
336 338 337 336 335 334 335 335 339 342 343 343 343 344 343 342 339 338 339 337 338 338 338 337 337 337 336 334 334 333 332 331 330 330 330 327 324 324 324 325 324 323 323 322
337 339 339 338 337 335 333 340 339 337 337 339 342 343 340 339 340 339 337 336 337 338 337 338 338 338 337 332 333 333 332 332 330 330 329 327 327 324 324 324 323 322 322 319
334 336 336 336 338 340 339 338 335 334 334 337 337 338 338 338 338 338 337 336 336 336 337 339 340 339 337 331 332 332 332 331 329 330 329 327 324 323 323 322 321 320 319 317
Wind_Speed
20 11 7 11 8 11 11 11 12 14 8 8 7 7 8 14 9 8 9 9 8 5 5 6 3 1 2 2 6 8 11 15 16 16 14 13 12 10 9 12 13 14 11 10
9 13 2 5 8 10 15 16 10 3 5 7 14 15 12 7 6 8 6 8 9 6 6 7 5 2 2 3 4 8 10 13 15 13 12 11 11 10 7 11 13 14 13 12
15 7 5 7 13 15 14 8 14 16 10 18 6 3 4 11 6 6 6 5 4 2 3 8 9 7 5 5 5 7 10 12 14 13 13 14 12 12 8 12 13 14 14 13
14 13 4 11 16 15 13 10 16 20 13 9 13 6 4 9 5 7 10 9 6 3 2 2 6 8 9 8 8 8 10 11 12 15 12 14 10 9 7 10 11 12 13 13
15 11 7 12 10 12 16 15 18 18 16 15 10 10 11 29 7 6 6 6 5 2 2 5 6 7 6 7 7 9 10 11 11 12 15 13 13 11 12 10 12 14 12 13
13 17 5 15 6 9 10 13 18 16 14 6 11 13 8 6 9 8 9 9 4 2 3 5 5 5 5 7 7 9 11 12 11 11 11 17 13 11 11 9 13 12 11 13
18 18 11 4 14 9 8 15 3 4 8 4 17 11 8 21 8 8 6 9 6 7 9 12 14 13 12 13 4 7 10 11 10 10 11 12 12 13 14 12 13 13 13 13
7 11 9 7 9 11 14 9 9 18 10 7 11 5 11 12 11 7 6 6 6 9 12 11 11 12 12 11 10 8 8 9 9 10 11 12 13 11 10 11 14 14 13 16
4 8 7 2 5 4 6 9 11 12 17 12 2 3 6 12 11 7 7 7 6 7 8 9 9 11 12 12 10 9 7 6 8 11 12 12 15 14 11 12 14 14 13 12
4 9 2 8 6 12 10 11 11 4 5 14 7 12 3 24 13 8 8 7 5 4 6 10 9 10 12 14 12 11 8 7 7 10 9 12 12 10 12 12 13 13 16 16
11 7 13 3 13 7 5 4 11 6 8 11 12 3 14 26 8 7 7 5 4 4 11 10 9 11 12 14 14 11 9 7 7 11 7 7 8 11 12 12 13 11 13 13
13 5 11 16 6 7 8 11 11 9 3 8 9 5 9 6 4 8 6 5 6 7 9 10 11 10 11 13 14 12 9 7 8 8 8 8 9 9 12 13 11 12 13 11
6 7 9 15 11 15 14 9 3 6 10 14 13 4 11 9 8 7 5 6 3 5 8 8 11 11 12 13 13 11 8 8 9 7 8 8 10 12 13 11 8 12 10 11
4 8 8 13 6 9 11 8 9 5 8 14 15 6 9 10 9 7 3 2 5 6 7 8 9 11 12 13 13 9 8 9 9 8 9 9 11 10 12 9 5 9 9 9
5 10 14 13 13 10 12 14 11 9 11 13 16 19 16 7 8 8 6 2 2 2 5 8 9 10 12 12 11 8 8 9 8 9 8 9 9 10 10 11 6 5 7 9
5 8 9 13 16 11 14 14 13 14 14 15 14 17 13 4 5 7 7 2 3 5 6 7 8 9 10 10 9 8 8 8 9 8 9 9 9 7 8 9 10 8 3 4
6 9 7 13 11 11 10 11 15 10 13 16 13 15 13 20 7 9 5 2 2 4 5 7 7 7 7 7 7 8 8 8 9 9 8 7 6 8 9 9 9 7 7 7
7 8 10 11 8 14 4 6 6 9 13 15 16 12 8 5 7 6 3 1 2 3 4 5 6 5 5 5 6 8 8 7 8 8 5 5 6 7 8 9 9 8 8 7
9 8 11 11 12 12 5 2 4 9 12 13 9 8 5 5 2 9 8 5 2 2 2 3 3 3 3 4 6 7 7 8 7 7 5 5 6 7 8 8 9 9 9 9
9 9 10 13 5 12 8 7 8 5 13 9 4 5 5 6 8 5 11 7 4 4 4 4 3 3 2 4 6 5 6 6 6 6 5 7 7 7 8 8 9 9 9 10
11 11 14 13 11 10 6 8 3 10 4 13 6 3 6 9 9 3 5 5 4 6 7 6 5 4 4 4 6 5 6 6 7 7 7 8 8 8 8 9 9 9 9 10
7 11 11 11 13 15 9 2 4 6 10 14 11 9 9 10 11 7 8 6 7 8 9 9 8 8 7 6 6 7 8 8 9 8 8 9 8 8 7 8 8 9 7 10
11 11 9 10 6 3 5 8 11 13 12 13 10 12 12 12 12 13 13 13 12 12 12 12 12 12 11 10 9 7 8 8 9 11 10 9 8 7 7 8 8 9 9 10
11 8 7 10 14 14 10 11 8 8 11 13 14 12 11 15 16 16 16 15 16 17 16 16 15 15 13 11 9 7 7 8 9 11 12 11 10 8 7 9 8 10 10 10
8 3 7 10 15 19 23 4 2 10 12 12 11 13 16 16 18 18 18 18 19 20 20 19 18 17 14 13 12 9 7 7 9 10 11 13 10 8 11 11 9 11 10 11
17 15 12 13 9 4 12 8 11 14 16 13 11 13 14 16 18 20 22 21 22 22 21 21 19 17 16 15 14 11 11 9 6 8 9 14 10 10 13 14 11 15 13 11
Wind_Direction
230 284 255 18 335 328 307 306 19 328 95 299 61 311 99 168 177 178 181 177 204 226 175 197 194 127 70 118 145 164 181 195 195 198 204 211 220 226 230 222 227 227 225 234
253 251 58 327 299 290 287 302 333 247 348 294 353 43 14 160 155 171 190 186 196 204 203 216 231 227 185 218 182 175 191 202 198 204 208 219 226 228 232 226 227 228 230 230
266 246 81 279 288 285 298 346 316 317 311 73 262 214 266 120 180 112 125 189 177 232 240 210 236 240 228 244 241 209 193 203 199 200 206 214 217 216 242 226 224 230 228 227
259 274 352 284 281 295 294 347 313 301 290 302 228 118 180 268 146 229 175 158 134 130 203 268 267 255 254 252 237 232 213 208 206 207 218 221 224 234 239 235 230 228 226 228
261 253 268 268 299 336 302 321 301 308 291 284 22 298 56 326 142 133 116 119 122 160 57 341 334 328 284 255 253 238 224 222 210 227 206 235 237 253 250 242 229 225 231 233
265 283 255 281 334 305 306 279 42 351 351 306 207 250 140 169 133 118 109 93 107 51 112 358 358 336 300 261 254 247 236 229 235 236 244 227 236 249 253 248 234 235 234 237
240 239 226 256 259 202 256 273 125 258 255 165 281 339 160 222 106 103 119 110 89 14 30 14 9 355 352 353 283 279 247 241 242 242 245 247 252 247 255 249 244 236 235 233
254 238 177 188 273 334 306 337 302 311 331 349 163 206 231 129 107 139 143 108 51 27 24 19 20 6 4 357 348 322 274 261 262 265 261 253 255 259 256 269 234 245 239 247
254 217 132 255 274 284 337 283 337 310 315 283 102 190 61 129 121 170 115 84 62 50 26 16 27 11 4 358 357 350 323 291 280 281 270 257 258 256 247 252 246 238 236 244
288 293 254 118 263 233 260 308 285 93 226 273 181 94 165 301 152 133 129 110 81 25 29 13 16 19 7 4 5 1 348 335 311 290 276 270 283 265 267 247 243 237 231 234
239 251 282 176 227 285 254 256 261 293 316 10 346 325 195 210 186 125 117 99 85 16 19 11 15 6 3 2 2 1 359 351 327 316 336 326 299 281 285 266 247 251 234 237
225 241 257 261 77 278 281 298 327 306 0 170 191 257 127 341 163 152 125 125 46 2 18 8 3 2 0 357 356 356 358 355 347 337 327 322 314 299 285 269 258 242 254 244
143 220 249 243 225 0 286 273 272 296 291 279 295 33 195 165 156 170 139 108 167 2 29 3 353 359 356 357 355 357 357 3 355 354 344 341 329 318 301 292 268 244 254 255
333 273 260 292 338 219 230 253 242 281 289 309 311 320 127 198 171 157 180 131 35 354 20 356 345 353 352 356 352 355 354 358 355 356 348 353 352 342 333 330 282 248 249 265
228 252 257 252 282 308 288 292 298 246 261 287 308 305 309 164 173 183 156 131 353 351 0 350 349 348 346 350 351 347 350 350 359 350 349 348 349 351 353 349 332 289 263 263
201 264 277 291 287 243 271 285 285 276 276 275 298 288 4 169 204 158 193 145 285 17 350 342 347 345 348 347 347 342 343 346 347 347 344 342 344 357 14 21 9 6 7 317
220 272 257 271 297 322 274 280 284 308 312 315 290 289 153 186 234 186 196 210 327 341 334 343 341 345 343 344 339 336 333 339 344 344 344 352 0 3 13 16 15 17 7 349
242 264 279 279 250 246 244 232 303 316 300 286 283 276 310 274 192 227 159 11 7 301 324 336 342 341 339 331 325 326 325 331 329 330 337 347 348 347 353 358 358 356 350 338
244 260 274 266 263 265 310 293 348 330 304 309 258 286 272 238 314 245 222 184 194 260 283 297 320 333 329 329 315 324 325 319 317 316 311 327 330 332 335 332 332 327 326 326
226 251 266 267 322 282 324 63 25 328 272 347 154 257 239 207 254 34 144 181 195 215 242 260 265 268 311 313 297 307 306 312 297 286 287 308 311 317 323 319 319 317 314 324
205 228 239 239 262 285 39 44 22 254 25 335 324 290 239 234 268 138 180 197 215 233 240 248 252 253 266 269 269 283 296 291 273 271 278 289 294 304 320 313 321 319 320 316
228 201 233 248 268 263 44 340 295 10 328 327 322 316 282 248 254 227 240 237 237 244 247 247 252 252 256 255 254 273 280 278 270 263 271 278 285 303 296 310 319 318 317 324
235 269 302 304 342 320 316 300 298 292 289 300 301 303 285 266 259 258 242 250 254 254 256 254 253 249 248 247 247 262 280 278 277 273 276 276 285 293 299 307 306 325 308 312
232 214 241 271 275 284 322 309 317 318 304 293 271 270 275 267 265 261 262 253 256 257 254 254 247 244 243 239 244 258 279 285 283 279 279 280 285 273 298 304 303 309 312 317
291 107 263 266 271 279 265 85 314 320 311 309 289 265 269 273 263 266 270 267 263 262 260 249 247 241 240 234 230 236 252 262 276 281 280 272 280 295 294 287 298 302 300 313
258 259 265 268 350 281 287 348 306 310 303 296 302 297 284 275 269 267 270 275 272 266 260 254 242 240 235 230 230 240 239 236 244 249 280 320 338 300 297 307 307 303 299 296